Location: Rounton
(54.4000°N, 1.3500°W)
Time: 14:24:02
(UTC+00:00)

Transit 4A - Pass Details

Date: 03 December 2021
Orbit: 864 x 981 km, 66.8° (Epoch: 20 January)

Event Time Altitude Azimuth Distance (km) Brightness Sun altitude
Rises 23:32:35 0° 287° (WNW) 3,527 - -57.5°
Reaches altitude 10° 23:35:31 10° 300° (WNW) 2,606 - -57.6°
Maximum altitude 23:40:31 26° 356° (N) 1,752 - -57.7°
Drops below altitude 10° 23:45:39 10° 52° (NE) 2,676 - -57.8°
Sets 23:48:43 0° 65° (ENE) 3,640 - -57.8°
